Zurück zum Katalog

COSMOS 2251 DEB

AktivLEO
NORAD 34682·DEBRIS·🇷🇺 Russia

Gestartet Jun 16, 1993 von Plesetsk Cosmodrome

Loading…

Nächste Überflüge (nächste 24 Stunden)

TLE

AktuellSource: Space-Track

Epoche: Sep 14, 2026, 10:50 UTC

1 34682U 93036YC  26257.45201454  .00001699  00000-0  35592-3 0  9993
2 34682  74.0357 277.1157 0019648 329.3867  99.3361 14.60445478927098

Verfolge COSMOS 2251 DEB in Echtzeit mit AllMySat

Download on the App Store